[[{"header":{"parameterUnit":"m.s-1","parameterCategory":2,"la1":30.2991,"la2":30.254,"lo1":-89.0895,"lo2":-89.0444,"dx":0.0017,"dy":0.0017,"nx":28,"ny":28,"refTime":"2023-02-06T09:00:00:Z","depth":"0","parameterNumber":2,"parameterNumberName":"U-component_of_CURRENTS"},"data":[0,0,0,0,0,0,0,0,0,0,0,0,0,0,0,0,0,0,0,0,0,0,0,0,0,0,0,0,0,0,0,0,0,0,0,0,0,0,0,0,0,0,0,0,0,0,0,0,0,0,0,0,0,0,0,0,0,0,-0.3107,-0.3107,0,-0.3027,-0.3026,-0.3024,-0.2924,-0.2923,-0.2922,-0.2922,-0.2831,-0.283,-0.2828,0,0,0,0,0,0,0,0,0,0,0,0,0,-0.3082,-0.3083,-0.3107,-0.3107,-0.3107,-0.3027,-0.3025,-0.3023,-0.2924,-0.2923,-0.2922,-0.2921,-0.2832,-0.283,-0.2828,0,0,0,0,0,0,0,0,0,0,0,0,0,-0.3048,-0.3083,-0.3108,-0.3054,-0.305,-0.3028,-0.3025,-0.3023,-0.2924,-0.2923,-0.2922,-0.2921,-0.2833,-0.283,-0.2828,-0.2835,0,0,-0.282,-0.2819,0,0,0,0,0,0,0,0,-0.305,-0.3048,-0.3062,-0.3058,-0.3053,-0.2992,-0.2984,-0.2963,-0.2924,-0.2962,-0.2922,-0.292,-0.2891,-0.2884,-0.2858,-0.2831,-0.2827,-0.282,-0.2818,-0.2817,-0.2816,0,0,0,0,0,0,0,-0.3053,-0.3051,-0.3066,-0.3063,-0.3057,-0.3004,-0.2997,-0.2978,-0.2927,-0.2959,-0.2954,-0.2959,-0.2887,-0.2861,-0.2856,-0.2826,-0.282,-0.2818,-0.2816,-0.2815,-0.2727,-0.2726,0,0,0,0,0,0,-0.3088,-0.3054,-0.3069,-0.3065,-0.3059,-0.3006,-0.2999,-0.3005,-0.2927,-0.2917,-0.2961,-0.2955,-0.2866,-0.2859,-0.2852,-0.2738,-0.2817,-0.2815,-0.2813,-0.2727,-0.2726,-0.2726,0,0,0,0,0,0,-0.3087,-0.309,-0.3073,-0.3064,-0.3059,-0.3009,-0.3017,-0.3005,-0.2978,-0.293,-0.2917,-0.2948,-0.2865,-0.2856,-0.2825,-0.2738,-0.2814,-0.2811,-0.2728,-0.2727,-0.2726,-0.2585,0,0,0,0,0,0,-0.3087,-0.309,-0.3094,-0.3067,-0.3062,-0.3056,-0.3018,-0.3004,-0.2988,-0.298,-0.2916,-0.2906,-0.2863,-0.2829,-0.2823,-0.2736,-0.2809,-0.273,-0.2728,-0.2726,-0.2591,-0.2579,-0.2569,0,0,0,0,0,-0.3086,-0.3108,-0.3095,-0.3097,-0.3074,-0.3057,-0.3047,-0.3001,-0.2989,-0.2973,-0.2931,-0.2908,-0.2814,-0.2827,-0.282,-0.273,-0.273,-0.2728,-0.2727,-0.2596,-0.2581,-0.2569,0,0,0,0,0,0,-0.3081,-0.31,-0.3085,-0.3105,-0.3081,-0.3043,-0.3038,-0.3013,-0.2966,-0.2969,-0.2909,-0.2896,-0.2824,-0.2831,-0.2847,-0.2708,-0.2764,-0.276,-0.2667,-0.2654,-0.2643,-0.2635,-0.2807,0,0,0,0,0,-0.3092,-0.312,-0.3106,-0.3118,-0.3118,-0.308,-0.3068,-0.3046,-0.3013,-0.299,-0.2932,-0.2884,-0.2812,-0.2781,-0.2739,-0.2684,-0.2689,-0.2624,-0.2613,-0.2604,-0.2597,-0.2543,-0.2525,-0.2719,-0.2719,-0.272,0,0,-0.3093,-0.3108,-0.312,-0.312,-0.3103,-0.3053,-0.3067,-0.3068,-0.2991,-0.2994,-0.288,-0.2853,-0.2797,-0.2702,-0.2671,-0.2693,-0.2553,-0.2601,-0.2592,-0.2591,-0.2539,-0.252,-0.2502,-0.2718,-0.2718,-0.2719,0,0,-0.3089,-0.3126,-0.3127,-0.3106,-0.3103,-0.3073,-0.3077,-0.3039,-0.299,-0.2915,-0.2869,-0.2796,-0.2717,-0.2621,-0.257,-0.2493,-0.2502,-0.2495,-0.2415,-0.2361,-0.2343,-0.2328,-0.2306,-0.229,-0.2482,-0.2481,-0.2481,0,-0.3077,-0.3067,-0.3118,-0.3086,-0.3052,-0.3073,-0.3015,-0.2967,-0.2907,-0.2866,-0.2869,-0.2708,-0.2649,-0.2499,-0.2446,-0.2453,-0.2466,-0.2452,-0.2341,-0.2327,-0.2313,-0.2295,-0.2279,-0.2474,-0.2475,-0.2476,-0.2477,0,-0.3046,-0.3018,-0.3022,-0.2973,-0.2949,-0.2928,-0.2877,-0.2842,-0.2803,-0.2742,-0.2631,-0.2558,-0.2468,-0.2413,-0.2386,-0.2253,-0.2307,-0.2333,-0.2362,-0.2284,-0.2271,-0.2257,-0.2464,-0.2467,-0.2469,-0.2471,0,0,-0.3036,-0.3003,-0.2991,-0.2943,-0.2892,-0.2875,-0.2774,-0.2687,-0.2641,-0.2555,-0.2458,-0.229,-0.2306,-0.2254,-0.222,-0.2146,-0.2026,-0.2197,-0.2198,-0.2155,-0.1946,-0.1925,-0.1909,-0.2047,-0.2044,-0.2042,-0.1972,0,-0.2966,-0.2893,-0.2884,-0.2773,-0.2721,-0.2707,-0.2614,-0.2553,-0.2505,-0.243,-0.2343,-0.2256,-0.2229,-0.2203,-0.2113,-0.207,-0.1985,-0.2045,-0.2048,-0.2048,-0.202,-0.1889,-0.1863,-0.1795,-0.1959,-0.1956,-0.1955,0,-0.2889,-0.2859,-0.2752,-0.268,-0.2662,-0.2598,-0.2518,-0.2444,-0.236,-0.2331,-0.2252,-0.223,-0.2088,-0.2104,-0.1951,-0.2009,-0.1957,-0.1917,-0.1914,-0.1934,-0.1999,-0.1903,-0.1763,-0.1716,-0.1933,-0.1935,-0.1937,0,-0.2831,-0.2749,-0.2669,-0.2635,-0.2561,-0.2519,-0.2483,-0.2412,-0.2363,-0.229,-0.2272,-0.2151,-0.2101,-0.2009,-0.1919,-0.1947,-0.1787,-0.1819,-0.1742,-0.1743,-0.1738,-0.1743,-0.1531,-0.1689,-0.169,-0.169,-0.169,0,-0.2733,-0.2667,-0.265,-0.2597,-0.2521,-0.2499,-0.2422,-0.2383,-0.2338,-0.2281,-0.2238,-0.2185,-0.208,-0.1992,-0.1911,-0.1779,-0.1776,-0.1693,-0.1698,-0.1691,-0.1692,-0.1671,-0.1694,-0.1687,-0.1688,-0.1688,-0.1689,0,-0.2635,-0.2627,-0.2528,-0.2481,-0.2475,-0.2419,-0.2383,-0.234,-0.2331,-0.2265,-0.2246,-0.2188,-0.2082,-0.1978,-0.1833,-0.1766,-0.1608,-0.16,-0.1612,-0.1617,-0.1506,-0.1525,-0.1365,-0.1327,-0.1501,-0.1499,-0.1498,0,-0.255,-0.2488,-0.2441,-0.2395,-0.2366,-0.232,-0.2286,-0.23,-0.2279,-0.2259,-0.2226,-0.2144,-0.2048,-0.1851,-0.1718,-0.1563,-0.154,-0.1467,-0.1471,-0.1448,-0.1475,-0.1488,-0.1469,-0.142,-0.1418,-0.1417,-0.1415,0,-0.2331,-0.2332,-0.2267,-0.2222,-0.2183,-0.2165,-0.2152,-0.2164,-0.2191,-0.2181,-0.2159,-0.2096,-0.193,-0.1749,-0.1567,-0.1482,-0.1437,-0.1435,-0.1388,-0.135,-0.1373,-0.1359,-0.1552,-0.1403,-0.1404,-0.1405,-0.1406,-0.1406,-0.212,-0.2053,-0.1992,-0.1953,-0.1954,-0.1983,-0.1962,-0.2022,-0.2025,-0.2017,-0.2046,-0.1919,-0.1764,-0.1499,-0.1413,-0.1269,-0.1314,-0.1231,-0.1247,-0.1254,-0.122,-0.1392,-0.1267,-0.1267,-0.1267,-0.1268,-0.1268,0,-0.1775,-0.1762,-0.1715,-0.1672,-0.1667,-0.1758,-0.1825,-0.1835,-0.1858,-0.1858,-0.183,-0.1632,-0.1456,-0.1317,-0.1162,-0.109,-0.1072,-0.1072,-0.1076,-0.1057,-0.1174,-0.1173,-0.1048,-0.1048,-0.1048,-0.1048,-0.1049,-0.1049,-0.1564,-0.1426,-0.1459,-0.1365,-0.1406,-0.14,-0.145,-0.1551,-0.1574,-0.1518,-0.1406,-0.1312,-0.1175,-0.1143,-0.1013,-0.0977,-0.0932,-0.0936,-0.0916,-0.1008,-0.1024,-0.1039,-0.1037,-0.0886,-0.0886,-0.0775,-0.0774,-0.0774]},{"header":{"parameterUnit":"m.s-1","parameterCategory":2,"la1":30.2991,"la2":30.254,"lo1":-89.0895,"lo2":-89.0444,"dx":0.0017,"dy":0.0017,"nx":28,"ny":28,"refTime":"2023-02-06T09:00:00:Z","depth":"0","parameterNumber":3,"parameterNumberName":"V-component_of_CURRENTS"},"data":[0,0,0,0,0,0,0,0,0,0,0,0,0,0,0,0,0,0,0,0,0,0,0,0,0,0,0,0,0,0,0,0,0,0,0,0,0,0,0,0,0,0,0,0,0,0,0,0,0,0,0,0,0,0,0,0,0,0,0.0189,0.019,0,0.0305,0.0307,0.0308,0.0296,0.0295,0.0293,0.0291,0.0414,0.0419,0.0424,0,0,0,0,0,0,0,0,0,0,0,0,0,0.007,0.0071,0.0189,0.019,0.0191,0.0305,0.0307,0.0308,0.0297,0.0294,0.0292,0.029,0.0413,0.0419,0.0425,0,0,0,0,0,0,0,0,0,0,0,0,0,0.0148,0.0072,0.0188,0.0198,0.02,0.0305,0.0307,0.0309,0.0297,0.0294,0.0291,0.0289,0.0411,0.0418,0.0425,0.053,0,0,0.0449,0.0452,0,0,0,0,0,0,0,0,0.0143,0.0152,0.0196,0.0198,0.02,0.0282,0.031,0.0383,0.0298,0.0262,0.0291,0.0287,0.0372,0.0383,0.0413,0.0536,0.0541,0.0449,0.0454,0.0457,0.0459,0,0,0,0,0,0,0,0.0138,0.0148,0.0236,0.0197,0.02,0.0236,0.0243,0.0324,0.0333,0.0265,0.0264,0.0276,0.0373,0.0405,0.0415,0.0543,0.0449,0.0456,0.0461,0.0464,0.0823,0.0828,0,0,0,0,0,0,0.0119,0.0143,0.0232,0.0239,0.0163,0.024,0.0248,0.026,0.0332,0.0339,0.0278,0.0275,0.0394,0.0407,0.042,0.0592,0.0457,0.0464,0.0469,0.0818,0.0824,0.0829,0,0,0,0,0,0,0.0116,0.0126,0.0228,0.0192,0.0208,0.0244,0.0258,0.0264,0.0292,0.0342,0.0349,0.0299,0.0392,0.0409,0.0512,0.0594,0.0468,0.0475,0.0812,0.082,0.0827,0.0908,0,0,0,0,0,0,0.0112,0.0124,0.013,0.0191,0.0209,0.0312,0.0261,0.0268,0.0303,0.03,0.0364,0.0372,0.0391,0.05,0.0519,0.0602,0.0481,0.0806,0.0815,0.0824,0.0899,0.0918,0.0933,0,0,0,0,0,0.0108,0.0137,0.013,0.0141,0.0214,0.0315,0.033,0.0345,0.0307,0.0352,0.0386,0.0369,0.0573,0.0511,0.0532,0.0619,0.0801,0.0813,0.0824,0.0892,0.0914,0.0933,0,0,0,0,0,0,0.0089,0.0141,0.0133,0.0175,0.0245,0.0312,0.0353,0.0356,0.0419,0.041,0.0429,0.0445,0.0562,0.0594,0.0523,0.0755,0.0688,0.0704,0.0733,0.0755,0.0771,0.073,0.0487,0,0,0,0,0,0.0087,0.0123,0.0184,0.0222,0.0256,0.0302,0.034,0.0361,0.042,0.0442,0.0485,0.0549,0.0633,0.0688,0.076,0.0895,0.0898,0.097,0.0987,0.1001,0.0987,0.1086,0.1108,0.0866,0.0866,0.0866,0,0,0.0086,0.0124,0.0139,0.0221,0.0269,0.0353,0.0319,0.0398,0.0466,0.0452,0.0557,0.0602,0.0678,0.0816,0.0876,0.085,0.1077,0.1015,0.1026,0.1004,0.1099,0.1122,0.1143,0.0874,0.0872,0.0871,0,0,0.0138,0.0145,0.0203,0.0269,0.0355,0.0397,0.042,0.0504,0.0537,0.0652,0.0656,0.0744,0.088,0.095,0.1001,0.1165,0.115,0.1207,0.1276,0.1374,0.1393,0.1409,0.1444,0.1463,0.1231,0.1232,0.1232,0,0.0129,0.0205,0.0241,0.0329,0.0379,0.0417,0.0501,0.0569,0.0674,0.0715,0.0698,0.0893,0.0944,0.1107,0.1159,0.12,0.1228,0.1183,0.139,0.1407,0.1422,0.1454,0.1474,0.1237,0.1236,0.1236,0.1235,0,0.0243,0.0296,0.0346,0.0453,0.0524,0.0607,0.0693,0.0764,0.0793,0.085,0.0992,0.1073,0.1174,0.1236,0.1244,0.1407,0.138,0.138,0.1319,0.1451,0.1477,0.1496,0.1244,0.1243,0.1241,0.124,0,0,0.0221,0.0385,0.0399,0.0453,0.0585,0.0654,0.0776,0.0893,0.0954,0.1067,0.1159,0.1316,0.1322,0.138,0.1425,0.152,0.165,0.15,0.1502,0.1498,0.1829,0.1655,0.1657,0.169,0.1694,0.1697,0.18,0,0.0286,0.0447,0.0517,0.0652,0.0728,0.0798,0.0902,0.1011,0.1089,0.1195,0.1291,0.1396,0.1395,0.1441,0.1542,0.1614,0.1706,0.1619,0.1732,0.1734,0.1535,0.1676,0.1542,0.1609,0.1818,0.1821,0.1823,0,0.0366,0.0455,0.06,0.0725,0.0763,0.0846,0.0977,0.1081,0.1232,0.1289,0.1404,0.1462,0.161,0.1583,0.1776,0.1721,0.1776,0.1831,0.1836,0.1648,0.1595,0.1518,0.1635,0.1657,0.1852,0.185,0.1848,0,0.0336,0.05,0.0604,0.0657,0.0822,0.0876,0.0951,0.1098,0.118,0.1335,0.1398,0.1566,0.1641,0.1764,0.1834,0.1829,0.2014,0.2024,0.1925,0.1912,0.1801,0.1769,0.1916,0.2169,0.2169,0.2169,0.2168,0,0.0376,0.0457,0.0587,0.0649,0.0745,0.0853,0.0959,0.1058,0.1196,0.1297,0.1423,0.1522,0.1692,0.1801,0.1873,0.1925,0.2047,0.1942,0.1942,0.1825,0.1796,0.1807,0.1837,0.2172,0.2172,0.2171,0.217,0,0.0372,0.046,0.0574,0.0712,0.0742,0.0812,0.0939,0.102,0.1142,0.1274,0.132,0.1513,0.1627,0.175,0.1933,0.1944,0.2009,0.2018,0.1821,0.1793,0.1677,0.1715,0.1827,0.1849,0.1943,0.1939,0.1937,0,0.0416,0.0471,0.0594,0.0643,0.0707,0.0797,0.086,0.098,0.1058,0.1259,0.1319,0.1463,0.1533,0.1691,0.173,0.1798,0.1895,0.1736,0.1699,0.1655,0.1704,0.1744,0.1761,0.1608,0.1603,0.1599,0.1595,0,0.0484,0.051,0.0596,0.0671,0.073,0.0803,0.0885,0.0917,0.1061,0.1136,0.1256,0.1318,0.1422,0.1422,0.1471,0.1516,0.169,0.1641,0.1704,0.1529,0.1485,0.1507,0.1521,0.1556,0.156,0.1563,0.1565,0.1566,0.0543,0.0577,0.0656,0.0724,0.0775,0.081,0.0843,0.088,0.0936,0.0999,0.1107,0.111,0.1179,0.1196,0.1251,0.1259,0.1384,0.1291,0.1365,0.1429,0.1376,0.1238,0.1191,0.1192,0.1194,0.1195,0.1196,0,0.0652,0.0654,0.0708,0.0778,0.0816,0.0837,0.0878,0.0868,0.085,0.0811,0.0832,0.0817,0.0829,0.0929,0.0972,0.1007,0.109,0.1077,0.1169,0.1225,0.1194,0.1097,0.0894,0.0894,0.0894,0.0894,0.0894,0.0894,0.0721,0.0761,0.0746,0.0803,0.0835,0.0862,0.0863,0.0802,0.0742,0.0606,0.0524,0.0497,0.0682,0.0859,0.0948,0.0958,0.1106,0.1033,0.1203,0.1211,0.1239,0.1266,0.1185,0.1004,0.1004,0.1184,0.1186,0.1187]}],[{"header":{"parameterUnit":"m.s-1","parameterCategory":2,"la1":30.2991,"la2":30.254,"lo1":-89.0895,"lo2":-89.0444,"dx":0.0017,"dy":0.0017,"nx":28,"ny":28,"refTime":"2023-02-06T09:00:00:Z","depth":"2","parameterNumber":2,"parameterNumberName":"U-component_of_CURRENTS"},"data":[0,0,0,0,0,0,0,0,0,0,0,0,0,0,0,0,0,0,0,0,0,0,0,0,0,0,0,0,0,0,0,0,0,0,0,0,0,0,0,0,0,0,0,0,0,0,0,0,0,0,0,0,0,0,0,0,0,0,-0.2602,-0.2606,0,-0.2628,-0.2625,-0.2622,-0.2407,-0.2405,-0.2404,-0.2402,-0.2342,-0.2342,-0.2342,0,0,0,0,0,0,0,0,0,0,0,0,0,-0.236,-0.2361,-0.2602,-0.2606,-0.2611,-0.2629,-0.2625,-0.2621,-0.2408,-0.2405,-0.2403,-0.2401,-0.2342,-0.2342,-0.2342,0,0,0,0,0,0,0,0,0,0,0,0,0,-0.2391,-0.2362,-0.2601,-0.254,-0.2538,-0.263,-0.2625,-0.262,-0.2408,-0.2405,-0.2403,-0.24,-0.2342,-0.2342,-0.2342,-0.24,0,0,-0.2343,-0.2343,0,0,0,0,0,0,0,0,-0.2389,-0.2394,-0.2544,-0.2545,-0.2543,-0.2551,-0.252,-0.2558,-0.2409,-0.241,-0.2402,-0.2399,-0.2436,-0.2428,-0.2376,-0.2397,-0.2394,-0.2343,-0.2343,-0.2343,-0.2343,0,0,0,0,0,0,0,-0.2387,-0.2392,-0.2566,-0.255,-0.255,-0.2512,-0.2508,-0.2523,-0.2401,-0.2409,-0.2405,-0.2481,-0.2428,-0.2376,-0.2374,-0.2393,-0.2343,-0.2343,-0.2343,-0.2343,-0.2397,-0.2399,0,0,0,0,0,0,-0.2479,-0.2391,-0.2567,-0.2572,-0.2508,-0.2522,-0.2515,-0.2514,-0.2403,-0.2397,-0.2483,-0.2472,-0.2377,-0.2374,-0.2371,-0.2339,-0.2343,-0.2344,-0.2344,-0.2396,-0.2398,-0.2399,0,0,0,0,0,0,-0.2471,-0.249,-0.2566,-0.2522,-0.2535,-0.2534,-0.2532,-0.2518,-0.2468,-0.2469,-0.245,-0.2455,-0.2375,-0.2371,-0.2386,-0.2339,-0.2344,-0.2344,-0.2395,-0.2397,-0.2398,-0.2337,0,0,0,0,0,0,-0.2462,-0.2485,-0.2487,-0.2526,-0.2543,-0.2592,-0.2539,-0.2522,-0.2542,-0.2524,-0.2441,-0.243,-0.2372,-0.2386,-0.2386,-0.234,-0.2344,-0.2393,-0.2395,-0.2398,-0.2337,-0.2337,-0.2336,0,0,0,0,0,-0.2452,-0.2444,-0.2484,-0.2509,-0.2551,-0.2597,-0.2592,-0.2556,-0.2544,-0.2498,-0.2477,-0.2433,-0.24,-0.2389,-0.2388,-0.234,-0.2392,-0.2395,-0.2398,-0.2338,-0.2337,-0.2336,0,0,0,0,0,0,-0.2335,-0.243,-0.247,-0.2492,-0.2556,-0.2577,-0.2562,-0.2579,-0.2521,-0.2516,-0.2469,-0.2457,-0.2438,-0.244,-0.2428,-0.2371,-0.2383,-0.2386,-0.2337,-0.2337,-0.2336,-0.2288,-0.2344,0,0,0,0,0,-0.2338,-0.2362,-0.2456,-0.2496,-0.2511,-0.2551,-0.257,-0.2577,-0.2579,-0.2544,-0.2516,-0.2492,-0.2453,-0.2438,-0.2414,-0.2415,-0.2422,-0.2385,-0.2385,-0.2383,-0.235,-0.237,-0.2366,-0.2409,-0.2409,-0.2409,0,0,-0.2334,-0.2394,-0.2415,-0.248,-0.2504,-0.2517,-0.2534,-0.2581,-0.2579,-0.2564,-0.2514,-0.2499,-0.2461,-0.2417,-0.2409,-0.2409,-0.2381,-0.2387,-0.2385,-0.2352,-0.2372,-0.2368,-0.2363,-0.2411,-0.241,-0.241,0,0,-0.2343,-0.2359,-0.2375,-0.2405,-0.2508,-0.2519,-0.255,-0.259,-0.2556,-0.2578,-0.254,-0.2509,-0.2489,-0.2413,-0.238,-0.2387,-0.2382,-0.2398,-0.2337,-0.2358,-0.2353,-0.2349,-0.2364,-0.2361,-0.2389,-0.2389,-0.2389,0,-0.2328,-0.2355,-0.2394,-0.2409,-0.2445,-0.252,-0.2535,-0.2518,-0.257,-0.2582,-0.2556,-0.251,-0.2458,-0.239,-0.234,-0.237,-0.2401,-0.233,-0.2352,-0.2348,-0.2344,-0.236,-0.2358,-0.2387,-0.2387,-0.2387,-0.2387,0,-0.2346,-0.2356,-0.2359,-0.2391,-0.2422,-0.2448,-0.2491,-0.2508,-0.2522,-0.254,-0.2516,-0.2446,-0.2411,-0.2379,-0.2329,-0.2279,-0.2317,-0.235,-0.2339,-0.2335,-0.2354,-0.2353,-0.2383,-0.2384,-0.2385,-0.2385,0,0,-0.2288,-0.2354,-0.2349,-0.2367,-0.2408,-0.2443,-0.2449,-0.2483,-0.2505,-0.2497,-0.2498,-0.2363,-0.2363,-0.2324,-0.2281,-0.2246,-0.2208,-0.2266,-0.2268,-0.2252,-0.2266,-0.2035,-0.2012,-0.2264,-0.2263,-0.2262,-0.2292,0,-0.2268,-0.2298,-0.2339,-0.2355,-0.2343,-0.2408,-0.2408,-0.2469,-0.2486,-0.2502,-0.2447,-0.2418,-0.2334,-0.2308,-0.2256,-0.2236,-0.2202,-0.2197,-0.2295,-0.2297,-0.2067,-0.2,-0.1911,-0.1905,-0.2291,-0.229,-0.229,0,-0.221,-0.2249,-0.2266,-0.2327,-0.2331,-0.2366,-0.2416,-0.2443,-0.2489,-0.2503,-0.2484,-0.2467,-0.2373,-0.2325,-0.2252,-0.2268,-0.2235,-0.2215,-0.2219,-0.2009,-0.2059,-0.1973,-0.1889,-0.2288,-0.2288,-0.2289,-0.2289,0,-0.2111,-0.2165,-0.2188,-0.2199,-0.2287,-0.2332,-0.2389,-0.2455,-0.2473,-0.252,-0.2521,-0.2484,-0.2417,-0.24,-0.226,-0.2299,-0.2198,-0.2281,-0.205,-0.2038,-0.1972,-0.195,-0.2234,-0.2234,-0.2234,-0.2234,-0.2233,0,-0.201,-0.2025,-0.2155,-0.2166,-0.2216,-0.2299,-0.2357,-0.2418,-0.2475,-0.2468,-0.2505,-0.2427,-0.2425,-0.2347,-0.2299,-0.2105,-0.2234,-0.1988,-0.2001,-0.1948,-0.1924,-0.2271,-0.2275,-0.2235,-0.2234,-0.2234,-0.2234,0,-0.1889,-0.1957,-0.1998,-0.2126,-0.2168,-0.2216,-0.2344,-0.2354,-0.2436,-0.2422,-0.2424,-0.2391,-0.2262,-0.2225,-0.2166,-0.2084,-0.1996,-0.1905,-0.1807,-0.1799,-0.1845,-0.1846,-0.1719,-0.1711,-0.1703,-0.1697,-0.1692,0,-0.1849,-0.1847,-0.1978,-0.1994,-0.2061,-0.2152,-0.2179,-0.2313,-0.2308,-0.2336,-0.2275,-0.219,-0.2,-0.1827,-0.1741,-0.1643,-0.1746,-0.1493,-0.1494,-0.1751,-0.178,-0.1793,-0.1803,-0.1439,-0.1433,-0.1427,-0.1423,0,-0.1761,-0.1803,-0.1826,-0.1875,-0.1919,-0.1976,-0.2035,-0.2019,-0.211,-0.2039,-0.1899,-0.1777,-0.1638,-0.1425,-0.1291,-0.1242,-0.1509,-0.1366,-0.1694,-0.1522,-0.1471,-0.1504,-0.1528,-0.1373,-0.1378,-0.1382,-0.1385,-0.1387,-0.1683,-0.1655,-0.1671,-0.1713,-0.1763,-0.175,-0.1717,-0.1686,-0.159,-0.1454,-0.1503,-0.1292,-0.1312,-0.0982,-0.0931,-0.0958,-0.1054,-0.1076,-0.1102,-0.1132,-0.1032,-0.0964,-0.0756,-0.0757,-0.0758,-0.0759,-0.076,0,-0.149,-0.1487,-0.151,-0.1531,-0.1526,-0.163,-0.1566,-0.1425,-0.1183,-0.1109,-0.0959,-0.0794,-0.0638,-0.071,-0.0659,-0.0628,-0.0746,-0.0628,-0.0822,-0.0866,-0.0907,-0.0806,-0.0465,-0.0465,-0.0464,-0.0464,0,0,-0.1369,-0.1296,-0.1313,-0.1287,-0.1331,-0.1237,-0.1159,-0.0908,-0.0782,-0.0485,-0.0421,-0.0482,-0.058,-0.0477,-0.0486,-0.0466,-0.0666,-0.0448,-0.0676,-0.0941,-0.0981,-0.1142,-0.1027,0,0,0,0,0]},{"header":{"parameterUnit":"m.s-1","parameterCategory":2,"la1":30.2991,"la2":30.254,"lo1":-89.0895,"lo2":-89.0444,"dx":0.0017,"dy":0.0017,"nx":28,"ny":28,"refTime":"2023-02-06T09:00:00:Z","depth":"2","parameterNumber":3,"parameterNumberName":"V-component_of_CURRENTS"},"data":[0,0,0,0,0,0,0,0,0,0,0,0,0,0,0,0,0,0,0,0,0,0,0,0,0,0,0,0,0,0,0,0,0,0,0,0,0,0,0,0,0,0,0,0,0,0,0,0,0,0,0,0,0,0,0,0,0,0,-0.0165,-0.0163,0,-0.0112,-0.0113,-0.0114,-0.0145,-0.0145,-0.0144,-0.0144,-0.0003,0.0,0.0003,0,0,0,0,0,0,0,0,0,0,0,0,0,-0.0289,-0.0288,-0.0165,-0.0163,-0.016,-0.0111,-0.0113,-0.0114,-0.0145,-0.0145,-0.0144,-0.0144,-0.0004,-0.0,0.0004,0,0,0,0,0,0,0,0,0,0,0,0,0,-0.0255,-0.0288,-0.0166,-0.0154,-0.0151,-0.0111,-0.0113,-0.0114,-0.0145,-0.0145,-0.0144,-0.0143,-0.0006,-0.0001,0.0004,0.0023,0,0,0.002,0.0022,0,0,0,0,0,0,0,0,-0.0257,-0.0254,-0.0159,-0.0155,-0.0151,-0.0116,-0.0103,-0.0057,-0.0145,-0.017,-0.0144,-0.0143,-0.0019,-0.0013,-0.0036,0.003,0.0036,0.002,0.0023,0.0025,0.0027,0,0,0,0,0,0,0,-0.026,-0.0256,-0.0165,-0.0155,-0.0151,-0.0148,-0.0145,-0.0097,-0.0113,-0.0168,-0.0164,-0.0125,-0.002,-0.0041,-0.0032,0.0038,0.002,0.0025,0.0028,0.003,0.0186,0.0187,0,0,0,0,0,0,-0.0225,-0.0258,-0.0167,-0.0162,-0.018,-0.0145,-0.0143,-0.0145,-0.0116,-0.0105,-0.0126,-0.0126,-0.005,-0.0038,-0.0027,0.0073,0.0025,0.003,0.0033,0.0185,0.0187,0.0188,0,0,0,0,0,0,-0.0229,-0.0219,-0.0168,-0.0189,-0.018,-0.0141,-0.0145,-0.0144,-0.0139,-0.0081,-0.0073,-0.0116,-0.0049,-0.0034,0.006,0.0076,0.0032,0.0037,0.0184,0.0186,0.0187,0.0226,0,0,0,0,0,0,-0.0234,-0.0223,-0.0228,-0.0188,-0.0176,-0.0149,-0.0143,-0.0142,-0.0107,-0.0108,-0.0069,-0.0058,-0.0047,0.0053,0.0065,0.0082,0.0041,0.0182,0.0185,0.0187,0.0224,0.0229,0.0234,0,0,0,0,0,-0.0239,-0.0275,-0.023,-0.0217,-0.0182,-0.0147,-0.0146,-0.0128,-0.0106,-0.0121,-0.0054,-0.0058,0.0073,0.0059,0.0073,0.0092,0.0181,0.0184,0.0186,0.0221,0.0228,0.0234,0,0,0,0,0,0,-0.0327,-0.0277,-0.0229,-0.0242,-0.018,-0.0144,-0.016,-0.0112,-0.008,-0.0064,-0.002,-0.0004,0.0077,0.0085,0.0069,0.014,0.0117,0.0122,0.0138,0.0145,0.015,0.0117,0.0045,0,0,0,0,0,-0.0337,-0.0346,-0.0271,-0.0263,-0.0253,-0.0191,-0.0173,-0.0132,-0.008,-0.0069,-0.0025,0.0027,0.009,0.0123,0.0163,0.022,0.0205,0.0232,0.0238,0.0242,0.0223,0.0209,0.021,0.0196,0.0196,0.0196,0,0,-0.035,-0.0323,-0.0319,-0.0278,-0.0251,-0.0241,-0.0189,-0.015,-0.0108,-0.005,-0.0009,0.0057,0.0113,0.0171,0.0204,0.0187,0.0248,0.0245,0.0249,0.0227,0.0211,0.0212,0.0213,0.0198,0.0198,0.0197,0,0,-0.0397,-0.0377,-0.0407,-0.0374,-0.0298,-0.0261,-0.0235,-0.0174,-0.0134,-0.0034,0.0009,0.0086,0.0176,0.02,0.0235,0.0293,0.0282,0.0313,0.031,0.0298,0.0298,0.0298,0.0319,0.0321,0.0308,0.0308,0.0308,0,-0.0412,-0.0432,-0.04,-0.0415,-0.0388,-0.027,-0.0275,-0.0215,-0.0108,-0.0069,-0.0014,0.0112,0.0178,0.0234,0.0275,0.0301,0.0308,0.0287,0.0302,0.0301,0.03,0.0322,0.0323,0.031,0.031,0.0309,0.0309,0,-0.0468,-0.0482,-0.0502,-0.0483,-0.0459,-0.0434,-0.0333,-0.0287,-0.0185,-0.0102,0.0005,0.0107,0.0166,0.0217,0.0291,0.0318,0.0333,0.0316,0.0281,0.0304,0.0327,0.0327,0.0313,0.0312,0.0312,0.0311,0,0,-0.0514,-0.054,-0.0538,-0.0551,-0.0487,-0.0471,-0.0415,-0.0336,-0.0299,-0.015,-0.0101,0.0058,0.0124,0.0166,0.0245,0.0275,0.0329,0.0316,0.0314,0.0329,0.0335,0.025,0.0242,0.0321,0.032,0.032,0.0368,0,-0.0557,-0.0614,-0.06,-0.0623,-0.066,-0.0568,-0.0537,-0.0436,-0.0323,-0.0247,-0.0094,-0.0002,0.0103,0.0161,0.0207,0.0307,0.0326,0.032,0.0317,0.0317,0.023,0.0237,0.0262,0.0296,0.0368,0.0368,0.0368,0,-0.0625,-0.0655,-0.0705,-0.0726,-0.0731,-0.0708,-0.0659,-0.0599,-0.0462,-0.037,-0.0258,-0.0131,-0.0003,0.0066,0.0196,0.0196,0.0264,0.0329,0.0331,0.0225,0.0229,0.0278,0.0294,0.0368,0.0368,0.0368,0.0368,0,-0.07,-0.0735,-0.0776,-0.0776,-0.0772,-0.0764,-0.0729,-0.0634,-0.0581,-0.0439,-0.0382,-0.0235,-0.013,-0.0038,0.0147,0.0177,0.0263,0.0294,0.0263,0.026,0.0261,0.0257,0.0319,0.0319,0.0319,0.0319,0.0319,0,-0.0776,-0.0811,-0.0809,-0.0834,-0.0867,-0.0831,-0.0816,-0.077,-0.0672,-0.0614,-0.0443,-0.038,-0.0147,-0.0042,0.0092,0.0178,0.0199,0.0252,0.0249,0.028,0.0276,0.031,0.0308,0.0321,0.032,0.032,0.032,0,-0.0859,-0.0858,-0.092,-0.092,-0.0915,-0.0929,-0.0872,-0.0853,-0.0763,-0.069,-0.0637,-0.0459,-0.0309,-0.0127,0.0041,0.0093,0.0183,0.0187,0.0228,0.0226,0.0217,0.0217,0.0176,0.0173,0.017,0.0168,0.0166,0,-0.0905,-0.0951,-0.0981,-0.0995,-0.0987,-0.0979,-0.0969,-0.0897,-0.0866,-0.0746,-0.0722,-0.0553,-0.043,-0.0238,-0.0071,0.0085,0.012,0.0119,0.0149,0.0192,0.0194,0.0198,0.0202,0.0213,0.0211,0.021,0.0209,0,-0.0997,-0.1002,-0.1033,-0.1072,-0.1074,-0.1071,-0.1043,-0.104,-0.0944,-0.089,-0.0798,-0.0697,-0.0474,-0.0271,-0.011,-0.0024,0.0102,0.0094,0.0122,0.0208,0.0219,0.0223,0.0228,0.02,0.0201,0.0202,0.0202,0.0203,-0.1045,-0.108,-0.1113,-0.1142,-0.1136,-0.1133,-0.1131,-0.1089,-0.1056,-0.0934,-0.0867,-0.0677,-0.0506,-0.0219,-0.0097,0.0038,0.0026,0.0069,0.0077,0.0084,0.0042,0.0043,-0.0011,-0.0011,-0.0012,-0.0012,-0.0012,0,-0.1101,-0.1132,-0.1171,-0.1197,-0.1191,-0.1162,-0.1156,-0.1113,-0.1068,-0.0938,-0.0818,-0.0588,-0.0404,-0.0194,0.0009,0.0052,0.0118,0.0069,0.0171,0.0176,0.0182,0.015,0.0123,0.0124,0.0125,0.0126,0,0,-0.1137,-0.1178,-0.1196,-0.1227,-0.1213,-0.118,-0.1166,-0.1092,-0.0992,-0.0845,-0.0687,-0.0544,-0.0348,-0.0181,-0.0074,0.0051,0.0099,0.0061,-0.0061,0.005,0.0056,0.0157,0.0108,0,0,0,0,0]}],[{"header":{"parameterUnit":"m.s-1","parameterCategory":2,"la1":30.2991,"la2":30.254,"lo1":-89.0895,"lo2":-89.0444,"dx":0.0017,"dy":0.0017,"nx":28,"ny":28,"refTime":"2023-02-06T09:00:00:Z","depth":"4","parameterNumber":2,"parameterNumberName":"U-component_of_CURRENTS"},"data":[0,0,0,0,0,0,0,0,0,0,0,0,0,0,0,0,0,0,0,0,0,0,0,0,0,0,0,0,0,0,0,0,0,0,0,0,0,0,0,0,0,0,0,0,0,0,0,0,0,0,0,0,0,0,0,0,0,0,-0.1007,-0.1008,0,-0.1081,-0.1081,-0.1082,-0.1177,-0.1179,-0.1181,-0.1182,-0.1308,-0.131,-0.1312,0,0,0,0,0,0,0,0,0,0,0,0,0,-0.0936,-0.0937,-0.1007,-0.1009,-0.101,-0.1081,-0.1081,-0.1082,-0.1177,-0.1179,-0.1181,-0.1183,-0.1308,-0.131,-0.1312,0,0,0,0,0,0,0,0,0,0,0,0,0,-0.0981,-0.0937,-0.1007,-0.1067,-0.1074,-0.108,-0.1081,-0.1082,-0.1176,-0.1179,-0.1182,-0.1184,-0.1307,-0.131,-0.1312,-0.1275,0,0,-0.132,-0.1321,0,0,0,0,0,0,0,0,-0.0979,-0.0984,-0.1057,-0.1063,-0.107,-0.1125,-0.1103,-0.115,-0.1176,-0.1135,-0.1182,-0.1185,-0.1251,-0.1259,-0.1262,-0.128,-0.1286,-0.132,-0.1322,-0.1323,-0.1324,0,0,0,0,0,0,0,-0.0976,-0.0981,-0.1034,-0.1058,-0.1066,-0.1086,-0.1095,-0.1112,-0.1176,-0.1138,-0.1146,-0.1157,-0.1255,-0.1259,-0.1266,-0.1288,-0.132,-0.1322,-0.1324,-0.1325,-0.1385,-0.1385,0,0,0,0,0,0,-0.0969,-0.0978,-0.1032,-0.1036,-0.1033,-0.1085,-0.1096,-0.1102,-0.1175,-0.1189,-0.1155,-0.1161,-0.1254,-0.1263,-0.1271,-0.1317,-0.1323,-0.1325,-0.1327,-0.1385,-0.1385,-0.1385,0,0,0,0,0,0,-0.0967,-0.0973,-0.1029,-0.1011,-0.102,-0.1084,-0.1091,-0.1103,-0.1132,-0.1188,-0.1203,-0.1176,-0.1256,-0.1268,-0.1321,-0.132,-0.1326,-0.1329,-0.1385,-0.1385,-0.1385,-0.1355,0,0,0,0,0,0,-0.0965,-0.0971,-0.0981,-0.101,-0.1021,-0.1057,-0.1089,-0.1102,-0.1134,-0.1144,-0.1209,-0.1223,-0.1259,-0.1317,-0.1323,-0.1324,-0.1331,-0.1385,-0.1385,-0.1385,-0.1355,-0.1354,-0.1352,0,0,0,0,0,-0.0962,-0.0967,-0.0981,-0.0989,-0.103,-0.1057,-0.1065,-0.1117,-0.1133,-0.1151,-0.12,-0.1222,-0.1322,-0.1319,-0.1327,-0.1328,-0.1385,-0.1385,-0.1385,-0.1356,-0.1354,-0.1352,0,0,0,0,0,0,-0.0965,-0.0977,-0.0995,-0.1011,-0.1042,-0.1075,-0.1093,-0.1116,-0.1163,-0.1183,-0.1225,-0.1242,-0.1286,-0.1308,-0.1303,-0.1345,-0.1355,-0.1357,-0.133,-0.1328,-0.1327,-0.1336,-0.1333,0,0,0,0,0,-0.096,-0.0952,-0.0988,-0.1001,-0.1014,-0.1048,-0.1067,-0.1105,-0.1145,-0.1169,-0.1205,-0.1248,-0.1282,-0.131,-0.1343,-0.1363,-0.1371,-0.1368,-0.1366,-0.1365,-0.1377,-0.1397,-0.1399,-0.1386,-0.1386,-0.1386,0,0,-0.0963,-0.097,-0.0969,-0.0998,-0.102,-0.1031,-0.1067,-0.1104,-0.112,-0.1173,-0.1203,-0.1243,-0.1287,-0.1321,-0.134,-0.1346,-0.1364,-0.1365,-0.1363,-0.1377,-0.1398,-0.1399,-0.14,-0.1386,-0.1386,-0.1386,0,0,-0.0941,-0.0971,-0.0948,-0.0971,-0.1009,-0.1037,-0.1047,-0.1086,-0.1118,-0.1148,-0.1192,-0.1236,-0.1275,-0.1314,-0.1335,-0.1338,-0.1353,-0.1346,-0.1348,-0.1367,-0.1368,-0.1369,-0.1343,-0.1343,-0.1347,-0.1347,-0.1347,0,-0.0946,-0.093,-0.0954,-0.0946,-0.0972,-0.1032,-0.1039,-0.1065,-0.112,-0.1152,-0.1162,-0.1237,-0.1268,-0.1318,-0.1327,-0.1333,-0.1339,-0.1351,-0.1364,-0.1366,-0.1368,-0.1342,-0.1341,-0.1345,-0.1346,-0.1346,-0.1346,0,-0.0894,-0.0904,-0.09,-0.0902,-0.0935,-0.0961,-0.1008,-0.1045,-0.1083,-0.1118,-0.1179,-0.1221,-0.1278,-0.1279,-0.1307,-0.1342,-0.1337,-0.1356,-0.1367,-0.1367,-0.1339,-0.1339,-0.1343,-0.1344,-0.1344,-0.1345,0,0,-0.0843,-0.0859,-0.0862,-0.0872,-0.0927,-0.095,-0.0987,-0.1047,-0.1081,-0.1128,-0.1164,-0.122,-0.1266,-0.1294,-0.1329,-0.1343,-0.134,-0.1361,-0.1363,-0.1331,-0.1357,-0.1243,-0.1232,-0.1371,-0.1372,-0.1373,-0.1317,0,-0.0802,-0.079,-0.0814,-0.0829,-0.0836,-0.0916,-0.0942,-0.1014,-0.1075,-0.112,-0.1183,-0.1227,-0.1263,-0.1293,-0.132,-0.1345,-0.1347,-0.1352,-0.1367,-0.1366,-0.1263,-0.1231,-0.1375,-0.1317,-0.1317,-0.1317,-0.1317,0,-0.0738,-0.0743,-0.0752,-0.0807,-0.0819,-0.0839,-0.0935,-0.0969,-0.1062,-0.1109,-0.1187,-0.124,-0.1291,-0.1303,-0.135,-0.1358,-0.1363,-0.1363,-0.1362,-0.1274,-0.1254,-0.1329,-0.1318,-0.1318,-0.1318,-0.1318,-0.1318,0,-0.069,-0.0707,-0.0723,-0.0739,-0.08,-0.0829,-0.0872,-0.097,-0.1006,-0.1105,-0.1132,-0.123,-0.1245,-0.1298,-0.1318,-0.1346,-0.1331,-0.1365,-0.1259,-0.125,-0.1385,-0.1385,-0.1384,-0.1384,-0.1384,-0.1385,-0.1385,0,-0.0644,-0.0655,-0.0698,-0.0706,-0.0729,-0.0788,-0.0834,-0.0899,-0.0972,-0.1001,-0.112,-0.1134,-0.1247,-0.1263,-0.1303,-0.1261,-0.1321,-0.1247,-0.1231,-0.1367,-0.1366,-0.1383,-0.1383,-0.1382,-0.1383,-0.1383,-0.1384,0,-0.0602,-0.0627,-0.0644,-0.0696,-0.0705,-0.0729,-0.0786,-0.0816,-0.0893,-0.0925,-0.095,-0.1049,-0.1073,-0.1148,-0.1193,-0.1195,-0.1193,-0.1162,-0.1257,-0.125,-0.1104,-0.1104,-0.1049,-0.1045,-0.1041,-0.1038,-0.1035,0,-0.0582,-0.0583,-0.0629,-0.0634,-0.0656,-0.0684,-0.07,-0.0773,-0.0794,-0.0854,-0.0848,-0.0893,-0.0956,-0.0909,-0.1014,-0.1054,-0.1062,-0.1046,-0.1125,-0.1081,-0.1072,-0.1078,-0.1083,-0.1029,-0.1028,-0.1027,-0.1026,0,-0.0546,-0.0573,-0.0593,-0.0597,-0.0606,-0.0609,-0.0626,-0.0616,-0.0683,-0.0748,-0.0724,-0.0754,-0.0759,-0.0826,-0.0844,-0.0887,-0.106,-0.1008,-0.1017,-0.1092,-0.1057,-0.1053,-0.1062,-0.1013,-0.1015,-0.1016,-0.1017,0,-0.0531,-0.0536,-0.0557,-0.056,-0.056,-0.0523,-0.0541,-0.0528,-0.0541,-0.0602,-0.0577,-0.0641,-0.0706,-0.0733,-0.0756,-0.0781,-0.081,-0.0818,-0.0839,-0.0854,-0.0828,-0.0758,-0.0594,0,0,0,0,0,-0.051,-0.0505,-0.0509,-0.0497,-0.0493,-0.0485,-0.0487,-0.0506,-0.054,-0.0492,-0.0533,-0.054,-0.0575,-0.0617,-0.0616,-0.0714,-0.0832,-0.0711,-0.0855,-0.0942,-0.0957,-0.0951,0,0,0,0,0,0,-0.0495,-0.0497,-0.0495,-0.0435,-0.0412,-0.0385,-0.038,-0.0403,-0.0379,-0.0428,-0.0449,-0.0503,-0.0554,-0.0566,-0.0603,-0.0621,-0.0699,-0.0761,-0.0759,-0.0933,-0.0947,-0.0959,-0.0958,0,0,0,0,0]},{"header":{"parameterUnit":"m.s-1","parameterCategory":2,"la1":30.2991,"la2":30.254,"lo1":-89.0895,"lo2":-89.0444,"dx":0.0017,"dy":0.0017,"nx":28,"ny":28,"refTime":"2023-02-06T09:00:00:Z","depth":"4","parameterNumber":3,"parameterNumberName":"V-component_of_CURRENTS"},"data":[0,0,0,0,0,0,0,0,0,0,0,0,0,0,0,0,0,0,0,0,0,0,0,0,0,0,0,0,0,0,0,0,0,0,0,0,0,0,0,0,0,0,0,0,0,0,0,0,0,0,0,0,0,0,0,0,0,0,-0.0461,-0.0462,0,-0.049,-0.049,-0.049,-0.0406,-0.0404,-0.0401,-0.0399,-0.032,-0.0321,-0.0321,0,0,0,0,0,0,0,0,0,0,0,0,0,-0.0408,-0.0409,-0.0461,-0.0462,-0.0462,-0.049,-0.049,-0.049,-0.0407,-0.0404,-0.0401,-0.0398,-0.032,-0.0321,-0.0321,0,0,0,0,0,0,0,0,0,0,0,0,0,-0.0432,-0.0409,-0.0461,-0.0425,-0.0422,-0.0489,-0.049,-0.049,-0.0407,-0.0404,-0.04,-0.0397,-0.032,-0.0321,-0.0321,-0.0396,0,0,-0.0322,-0.0322,0,0,0,0,0,0,0,0,-0.0431,-0.0434,-0.043,-0.0428,-0.0424,-0.0442,-0.0442,-0.0454,-0.0408,-0.0412,-0.0399,-0.0395,-0.0355,-0.0352,-0.0365,-0.0393,-0.0389,-0.0322,-0.0322,-0.0322,-0.0322,0,0,0,0,0,0,0,-0.0429,-0.0433,-0.0471,-0.0431,-0.0427,-0.0432,-0.0431,-0.0445,-0.0401,-0.0411,-0.0405,-0.0412,-0.0352,-0.0365,-0.0362,-0.0388,-0.0322,-0.0322,-0.0322,-0.0322,-0.0453,-0.0456,0,0,0,0,0,0,-0.0429,-0.0431,-0.047,-0.0472,-0.042,-0.0436,-0.0434,-0.0439,-0.0402,-0.0395,-0.0415,-0.0408,-0.0367,-0.0362,-0.0359,-0.0428,-0.0322,-0.0322,-0.0322,-0.0449,-0.0453,-0.0457,0,0,0,0,0,0,-0.0427,-0.0432,-0.0469,-0.0453,-0.0458,-0.044,-0.0447,-0.0441,-0.0443,-0.0407,-0.0395,-0.042,-0.0363,-0.0359,-0.0377,-0.0424,-0.0322,-0.0323,-0.0445,-0.0451,-0.0455,-0.0576,0,0,0,0,0,0,-0.0426,-0.0431,-0.0442,-0.0453,-0.0459,-0.0514,-0.045,-0.0445,-0.0454,-0.0445,-0.0409,-0.0398,-0.036,-0.0377,-0.0377,-0.0422,-0.0323,-0.0441,-0.0448,-0.0454,-0.0568,-0.0585,-0.0599,0,0,0,0,0,-0.0424,-0.0449,-0.0442,-0.0447,-0.0471,-0.0516,-0.0521,-0.0494,-0.0458,-0.0478,-0.0452,-0.0398,-0.0416,-0.038,-0.038,-0.0426,-0.0438,-0.0446,-0.0453,-0.0561,-0.0581,-0.0598,0,0,0,0,0,0,-0.0422,-0.0444,-0.0436,-0.0463,-0.0491,-0.0502,-0.052,-0.0508,-0.0509,-0.0495,-0.0442,-0.0433,-0.047,-0.0443,-0.0405,-0.0485,-0.0419,-0.0427,-0.0502,-0.052,-0.0535,-0.0496,-0.0323,0,0,0,0,0,-0.0434,-0.0464,-0.0481,-0.0509,-0.0522,-0.0527,-0.0542,-0.0535,-0.0536,-0.0532,-0.0512,-0.0499,-0.0511,-0.0505,-0.0513,-0.056,-0.0513,-0.0591,-0.0606,-0.0619,-0.059,-0.0579,-0.0589,-0.0481,-0.0481,-0.0481,0,0,-0.0447,-0.0461,-0.0479,-0.0514,-0.0528,-0.0554,-0.0526,-0.0563,-0.0581,-0.0527,-0.055,-0.0558,-0.0538,-0.0586,-0.06,-0.056,-0.0637,-0.0629,-0.064,-0.0602,-0.0588,-0.0597,-0.0606,-0.0486,-0.0485,-0.0484,0,0,-0.0487,-0.0497,-0.053,-0.0554,-0.0588,-0.0593,-0.0606,-0.0633,-0.0637,-0.0688,-0.0649,-0.0677,-0.0703,-0.069,-0.0687,-0.0795,-0.0725,-0.0817,-0.0851,-0.0844,-0.0851,-0.0856,-0.0845,-0.0848,-0.0816,-0.0816,-0.0816,0,-0.0494,-0.0527,-0.0551,-0.0581,-0.0593,-0.0607,-0.0634,-0.0661,-0.0693,-0.0705,-0.0705,-0.0751,-0.0745,-0.077,-0.0813,-0.0825,-0.0806,-0.078,-0.0859,-0.0864,-0.0867,-0.0853,-0.0856,-0.0823,-0.0822,-0.0821,-0.0821,0,-0.0553,-0.0571,-0.0595,-0.0625,-0.0653,-0.0687,-0.0715,-0.0749,-0.0768,-0.0788,-0.0845,-0.0864,-0.0868,-0.0907,-0.0893,-0.0931,-0.0907,-0.0886,-0.0802,-0.0885,-0.0867,-0.0867,-0.0832,-0.083,-0.0828,-0.0826,0,0,-0.0572,-0.0621,-0.0627,-0.0634,-0.0672,-0.0701,-0.0743,-0.0781,-0.0796,-0.0865,-0.0886,-0.0955,-0.0961,-0.0957,-0.0961,-0.097,-0.1013,-0.0946,-0.0943,-0.0915,-0.0996,-0.089,-0.0879,-0.1007,-0.1007,-0.1008,-0.0984,0,-0.0597,-0.0644,-0.0668,-0.0704,-0.0718,-0.074,-0.0772,-0.0815,-0.0855,-0.0888,-0.0927,-0.0962,-0.098,-0.0998,-0.1013,-0.1007,-0.1013,-0.102,-0.0933,-0.093,-0.0809,-0.0875,-0.1008,-0.0983,-0.0983,-0.0983,-0.0983,0,-0.0627,-0.0653,-0.069,-0.0716,-0.0726,-0.0756,-0.0791,-0.0828,-0.0876,-0.0908,-0.0946,-0.0968,-0.1001,-0.1006,-0.1016,-0.1023,-0.1011,-0.101,-0.1008,-0.085,-0.0822,-0.0876,-0.0981,-0.0981,-0.0982,-0.0982,-0.0982,0,-0.0609,-0.0656,-0.068,-0.0693,-0.0738,-0.0762,-0.0788,-0.0837,-0.087,-0.0913,-0.0938,-0.0972,-0.0991,-0.0993,-0.0992,-0.101,-0.0983,-0.0999,-0.0891,-0.0884,-0.0928,-0.0922,-0.0987,-0.0987,-0.0987,-0.0987,-0.0987,0,-0.06,-0.0623,-0.0677,-0.0691,-0.073,-0.0759,-0.0804,-0.0834,-0.0875,-0.0908,-0.0942,-0.0963,-0.099,-0.0982,-0.0981,-0.092,-0.0967,-0.0886,-0.0865,-0.0989,-0.0989,-0.093,-0.0923,-0.0986,-0.0987,-0.0987,-0.0987,0,-0.0581,-0.0609,-0.0648,-0.0704,-0.0723,-0.0758,-0.0819,-0.0848,-0.088,-0.0917,-0.093,-0.096,-0.0939,-0.0932,-0.092,-0.0888,-0.085,-0.081,-0.0931,-0.0919,-0.0768,-0.0769,-0.0707,-0.0703,-0.0699,-0.0696,-0.0694,0,-0.0585,-0.0597,-0.0665,-0.0698,-0.073,-0.0781,-0.0814,-0.0853,-0.088,-0.0914,-0.0925,-0.0912,-0.0919,-0.0821,-0.0811,-0.0752,-0.0741,-0.072,-0.0762,-0.075,-0.0737,-0.0743,-0.0749,-0.0688,-0.0687,-0.0687,-0.0686,0,-0.0601,-0.0623,-0.0662,-0.0716,-0.0761,-0.0803,-0.0848,-0.0858,-0.0892,-0.0917,-0.0904,-0.0868,-0.0816,-0.0778,-0.07,-0.0674,-0.074,-0.0685,-0.0693,-0.0732,-0.0728,-0.0719,-0.0729,-0.0674,-0.0675,-0.0677,-0.0677,0,-0.063,-0.0656,-0.0699,-0.0741,-0.0789,-0.0813,-0.0837,-0.0853,-0.0869,-0.0887,-0.0879,-0.0844,-0.0838,-0.0734,-0.0681,-0.0613,-0.0618,-0.0621,-0.0633,-0.0646,-0.0625,-0.061,-0.0493,0,0,0,0,0,-0.0659,-0.0673,-0.072,-0.0762,-0.08,-0.0823,-0.0855,-0.0869,-0.0883,-0.0862,-0.0867,-0.0814,-0.0717,-0.0696,-0.0607,-0.0626,-0.061,-0.0519,-0.0621,-0.0608,-0.0621,-0.0596,0,0,0,0,0,0,-0.0676,-0.0718,-0.0721,-0.076,-0.0785,-0.0824,-0.084,-0.0853,-0.0838,-0.0845,-0.0795,-0.078,-0.0691,-0.0763,-0.0603,-0.0585,-0.0634,-0.0484,-0.0481,-0.06,-0.0612,-0.0623,-0.0602,0,0,0,0,0]}]]